| time (UTC) | temp C | wind direction | speed KPH | gust KPH | rain 1hr cm | rain 24hr cm | rain mn cm | humidity % | barometer mb |
| 20260507045029 | 8 | 35 | 11.3 | 17.7 | 0.00 | 0.00 | 0.00 | 79 | 1014.4 |
| 20260507044030 | 8 | 34 | 11.3 | 17.7 | 0.00 | 0.00 | 0.00 | 79 | 1014.4 |
| 20260507043029 | 8 | 37 | 9.7 | 17.7 | 0.00 | 0.00 | 0.00 | 79 | 1014.4 |
| 20260507042030 | 8 | 26 | 9.7 | 19.3 | 0.00 | 0.00 | 0.00 | 80 | 1014.3 |
| 20260507041030 | 8 | 16 | 9.7 | 16.1 | 0.00 | 0.00 | 0.00 | 81 | 1014.1 |
| 20260507040029 | 8 | 22 | 8.0 | 16.1 | 0.00 | 0.00 | 0.00 | 81 | 1014.0 |
| 20260507035030 | 8 | 18 | 9.7 | 17.7 | 0.00 | 0.00 | 0.00 | 82 | 1014.1 |
| 20260507034029 | 8 | 29 | 9.7 | 14.5 | 0.00 | 0.00 | 0.00 | 82 | 1014.0 |
| 20260507033030 | 8 | 44 | 8.0 | 14.5 | 0.00 | 0.00 | 0.00 | 82 | 1014.0 |
| 20260507032030 | 8 | 53 | 6.4 | 8.0 | 0.00 | 0.00 | 0.00 | 81 | 1013.9 |
| 20260507031029 | 8 | 57 | 6.4 | 9.7 | 0.00 | 0.00 | 0.00 | 82 | 1013.9 |
| 20260507030030 | 8 | 73 | 4.8 | 6.4 | 0.00 | 0.00 | 0.00 | 82 | 1013.9 |
| 20260507025029 | 8 | 57 | 3.2 | 6.4 | 0.00 | 0.00 | 0.00 | 82 | 1013.9 |
| 20260507024030 | 8 | 55 | 4.8 | 12.9 | 0.00 | 0.00 | 0.00 | 82 | 1013.8 |
| 20260507023030 | 8 | 44 | 6.4 | 12.9 | 0.00 | 0.00 | 0.00 | 82 | 1013.8 |
| 20260507022029 | 8 | 40 | 6.4 | 11.3 | 0.00 | 0.00 | 0.00 | 81 | 1013.7 |
| 20260507021030 | 8 | 20 | 8.0 | 16.1 | 0.00 | 0.00 | 0.00 | 81 | 1013.7 |
| 20260507020030 | 8 | 33 | 8.0 | 16.1 | 0.00 | 0.00 | 0.00 | 81 | 1013.6 |
| 20260507015030 | 9 | 16 | 8.0 | 16.1 | 0.00 | 0.00 | 0.00 | 80 | 1013.6 |
| 20260507014030 | 9 | 20 | 9.7 | 17.7 | 0.00 | 0.00 | 0.00 | 80 | 1013.5 |
| 20260507013030 | 8 | 20 | 9.7 | 16.1 | 0.00 | 0.00 | 0.00 | 79 | 1013.5 |
| 20260507012029 | 8 | 34 | 6.4 | 14.5 | 0.00 | 0.00 | 0.00 | 78 | 1013.5 |
| 20260507011030 | 8 | 48 | 8.0 | 14.5 | 0.00 | 0.00 | 0.00 | 78 | 1013.4 |
| 20260507010030 | 8 | 33 | 9.7 | 17.7 | 0.00 | 0.00 | 0.00 | 78 | 1013.4 |
| 20260507005029 | 8 | 31 | 8.0 | 14.5 | 0.00 | 0.00 | 0.00 | 79 | 1013.5 |
| 20260507004030 | 8 | 40 | 9.7 | 14.5 | 0.00 | 0.00 | 0.00 | 79 | 1013.4 |
| 20260507003029 | 8 | 37 | 9.7 | 16.1 | 0.00 | 0.00 | 0.00 | 79 | 1013.4 |
| 20260507002030 | 8 | 47 | 9.7 | 17.7 | 0.00 | 0.00 | 0.00 | 79 | 1013.4 |
| 20260507001029 | 8 | 48 | 8.0 | 16.1 | 0.00 | 0.00 | 0.00 | 80 | 1013.3 |
| 20260507000030 | 8 | 54 | 9.7 | 20.9 | 0.00 | 0.00 | 0.00 | 80 | 1013.3 |
| 20260506235030 | 8 | 48 | 11.3 | 20.9 | 0.00 | 0.00 | 0.00 | 80 | 1013.4 |
| 20260506234030 | 8 | 45 | 11.3 | 19.3 | 0.00 | 0.00 | 0.00 | 80 | 1013.4 |
| 20260506233030 | 8 | 40 | 9.7 | 17.7 | 0.00 | 0.00 | 0.00 | 80 | 1013.4 |
| 20260506232030 | 8 | 42 | 6.4 | 9.7 | 0.00 | 0.00 | 0.00 | 80 | 1013.3 |
| 20260506231029 | 8 | 48 | 4.8 | 8.0 | 0.00 | 0.00 | 0.00 | 80 | 1013.3 |
| 20260506230030 | 8 | 56 | 4.8 | 8.0 | 0.00 | 0.00 | 0.00 | 80 | 1013.3 |
| 20260506225029 | 8 | 61 | 4.8 | 12.9 | 0.00 | 0.00 | 0.00 | 79 | 1013.3 |
| 20260506224030 | 8 | 60 | 6.4 | 12.9 | 0.00 | 0.00 | 0.00 | 79 | 1013.2 |
| 20260506223029 | 8 | 63 | 6.4 | 12.9 | 0.00 | 0.00 | 0.00 | 78 | 1013.1 |
| 20260506222030 | 9 | 69 | 6.4 | 12.9 | 0.00 | 0.00 | 0.00 | 78 | 1013.1 |
| 20260506221030 | 9 | 65 | 6.4 | 14.5 | 0.00 | 0.00 | 0.00 | 77 | 1013.1 |
| 20260506220029 | 9 | 60 | 8.0 | 16.1 | 0.00 | 0.00 | 0.00 | 77 | 1013.0 |
| 20260506215030 | 9 | 54 | 9.7 | 20.9 | 0.00 | 0.00 | 0.00 | 77 | 1012.9 |
| 20260506214029 | 10 | 57 | 11.3 | 19.3 | 0.00 | 0.00 | 0.00 | 76 | 1012.9 |
| 20260506213030 | 10 | 44 | 11.3 | 17.7 | 0.00 | 0.00 | 0.00 | 75 | 1012.9 |
| 20260506212030 | 10 | 50 | 12.9 | 22.5 | 0.00 | 0.00 | 0.00 | 74 | 1012.8 |
| 20260506211029 | 10 | 41 | 12.9 | 20.9 | 0.00 | 0.00 | 0.00 | 73 | 1012.7 |
| 20260506210029 | 10 | 45 | 12.9 | 22.5 | 0.00 | 0.00 | 0.00 | 72 | 1012.6 |
| 20260506205030 | 10 | 44 | 12.9 | 20.9 | 0.00 | 0.00 | 0.00 | 70 | 1012.5 |
| 20260506204029 | 11 | 41 | 14.5 | 25.7 | 0.00 | 0.00 | 0.00 | 69 | 1012.5 |
| 20260506203029 | 11 | 47 | 12.9 | 20.9 | 0.00 | 0.00 | 0.00 | 69 | 1012.4 |
| 20260506202030 | 11 | 42 | 14.5 | 22.5 | 0.00 | 0.00 | 0.00 | 68 | 1012.3 |
| 20260506201030 | 11 | 51 | 14.5 | 22.5 | 0.00 | 0.00 | 0.00 | 68 | 1012.3 |
| 20260506200030 | 11 | 39 | 12.9 | 22.5 | 0.00 | 0.00 | 0.00 | 67 | 1012.2 |
| 20260506195030 | 11 | 46 | 11.3 | 20.9 | 0.00 | 0.00 | 0.00 | 66 | 1012.0 |
| 20260506194030 | 11 | 50 | 12.9 | 20.9 | 0.00 | 0.00 | 0.00 | 65 | 1012.0 |
| 20260506193029 | 11 | 48 | 14.5 | 24.1 | 0.00 | 0.00 | 0.00 | 65 | 1011.8 |
| 20260506192029 | 11 | 35 | 14.5 | 24.1 | 0.00 | 0.00 | 0.00 | 64 | 1011.6 |
| 20260506191030 | 12 | 35 | 14.5 | 30.6 | 0.00 | 0.00 | 0.00 | 64 | 1011.4 |
| 20260506190029 | 12 | 40 | 17.7 | 29.0 | 0.00 | 0.00 | 0.00 | 64 | 1011.3 |
| 20260506185030 | 12 | 38 | 16.1 | 30.6 | 0.00 | 0.00 | 0.00 | 64 | 1011.2 |
| 20260506184030 | 12 | 43 | 14.5 | 25.7 | 0.00 | 0.00 | 0.00 | 64 | 1011.1 |
| 20260506183030 | 12 | 42 | 17.7 | 32.2 | 0.00 | 0.00 | 0.00 | 65 | 1011.0 |
| 20260506182029 | 12 | 37 | 16.1 | 27.4 | 0.00 | 0.00 | 0.00 | 65 | 1010.9 |
| 20260506181030 | 12 | 50 | 14.5 | 24.1 | 0.00 | 0.00 | 0.00 | 66 | 1010.8 |
| 20260506180030 | 12 | 36 | 12.9 | 24.1 | 0.00 | 0.00 | 0.00 | 67 | 1010.7 |
| 20260506175029 | 12 | 20 | 17.7 | 30.6 | 0.00 | 0.00 | 0.00 | 67 | 1010.5 |
| 20260506174030 | 13 | 23 | 14.5 | 29.0 | 0.00 | 0.00 | 0.00 | 65 | 1010.4 |
| 20260506173030 | 13 | 36 | 9.7 | 22.5 | 0.00 | 0.00 | 0.00 | 65 | 1010.3 |
| 20260506172030 | 13 | 40 | 4.8 | 12.9 | 0.00 | 0.00 | 0.00 | 59 | 1010.3 |
| 20260506171030 | 12 | 74 | 9.7 | 19.3 | 0.00 | 0.00 | 0.00 | 58 | 1010.2 |
| 20260506170030 | 12 | 78 | 11.3 | 20.9 | 0.00 | 0.00 | 0.00 | 57 | 1010.2 |
| 20260506165029 | 13 | 80 | 12.9 | 22.5 | 0.00 | 0.00 | 0.00 | 56 | 1010.2 |
| 20260506164030 | 13 | 82 | 8.0 | 20.9 | 0.00 | 0.00 | 0.00 | 55 | 1010.1 |
| 20260506163030 | 12 | 87 | 8.0 | 22.5 | 0.00 | 0.00 | 0.00 | 55 | 1010.1 |
| 20260506162030 | 12 | 74 | 11.3 | 27.4 | 0.00 | 0.00 | 0.00 | 55 | 1009.9 |
| 20260506161030 | 12 | 75 | 14.5 | 30.6 | 0.00 | 0.00 | 0.00 | 56 | 1010.0 |
| 20260506160029 | 12 | 58 | 16.1 | 30.6 | 0.00 | 0.00 | 0.00 | 56 | 1010.0 |
| 20260506155029 | 13 | 77 | 14.5 | 24.1 | 0.00 | 0.00 | 0.00 | 55 | 1010.0 |
| 20260506154029 | 13 | 79 | 17.7 | 33.8 | 0.00 | 0.00 | 0.00 | 54 | 1010.0 |
| 20260506153029 | 13 | 82 | 14.5 | 29.0 | 0.00 | 0.00 | 0.00 | 54 | 1010.0 |
| 20260506152030 | 13 | 69 | 14.5 | 25.7 | 0.00 | 0.00 | 0.00 | 53 | 1010.0 |
| 20260506151030 | 13 | 45 | 16.1 | 24.1 | 0.00 | 0.00 | 0.00 | 53 | 1010.0 |
| 20260506150030 | 13 | 30 | 14.5 | 29.0 | 0.00 | 0.00 | 0.00 | 52 | 1009.9 |
| 20260506145029 | 13 | 45 | 14.5 | 25.7 | 0.00 | 0.00 | 0.00 | 51 | 1009.9 |
| 20260506144029 | 13 | 54 | 12.9 | 24.1 | 0.00 | 0.00 | 0.00 | 50 | 1009.9 |
| 20260506143029 | 13 | 53 | 16.1 | 27.4 | 0.00 | 0.00 | 0.00 | 48 | 1009.9 |
| 20260506142029 | 13 | 71 | 16.1 | 29.0 | 0.00 | 0.00 | 0.00 | 46 | 1009.8 |
| 20260506141030 | 13 | 73 | 12.9 | 27.4 | 0.00 | 0.00 | 0.00 | 49 | 1009.8 |
| 20260506140030 | 13 | 75 | 12.9 | 25.7 | 0.00 | 0.00 | 0.00 | 48 | 1009.8 |
| 20260506135030 | 13 | 67 | 16.1 | 30.6 | 0.00 | 0.00 | 0.00 | 49 | 1009.7 |
| 20260506134030 | 13 | 88 | 16.1 | 32.2 | 0.00 | 0.00 | 0.00 | 46 | 1009.6 |
| 20260506133029 | 13 | 87 | 16.1 | 33.8 | 0.00 | 0.00 | 0.00 | 47 | 1009.7 |
| 20260506132029 | 13 | 92 | 14.5 | 37.0 | 0.00 | 0.00 | 0.00 | 44 | 1009.7 |
| 20260506131029 | 13 | 77 | 20.9 | 37.0 | 0.00 | 0.00 | 0.00 | 44 | 1009.6 |
| 20260506130030 | 13 | 77 | 19.3 | 43.5 | 0.00 | 0.00 | 0.00 | 45 | 1009.6 |
| 20260506125029 | 13 | 70 | 17.7 | 38.6 | 0.00 | 0.00 | 0.00 | 46 | 1009.5 |
| 20260506124029 | 13 | 81 | 19.3 | 38.6 | 0.00 | 0.00 | 0.00 | 44 | 1009.5 |
| 20260506123030 | 13 | 71 | 19.3 | 33.8 | 0.00 | 0.00 | 0.00 | 45 | 1009.5 |
| 20260506122030 | 13 | 72 | 19.3 | 33.8 | 0.00 | 0.00 | 0.00 | 47 | 1009.4 |
| 20260506121030 | 13 | 66 | 16.1 | 30.6 | 0.00 | 0.00 | 0.00 | 46 | 1009.4 |
| 20260506120030 | 13 | 80 | 8.0 | 29.0 | 0.00 | 0.00 | 0.00 | 47 | 1009.5 |
| 20260506115030 | 14 | 77 | 16.1 | 38.6 | 0.00 | 0.00 | 0.00 | 45 | 1009.4 |
| 20260506114030 | 14 | 96 | 11.3 | 40.2 | 0.00 | 0.00 | 0.00 | 49 | 1009.4 |
| 20260506113030 | 13 | 72 | 14.5 | 37.0 | 0.00 | 0.00 | 0.00 | 51 | 1009.3 |
| 20260506112030 | 13 | 98 | 8.0 | 30.6 | 0.00 | 0.00 | 0.00 | 50 | 1009.4 |
| 20260506111029 | 13 | 77 | 14.5 | 30.6 | 0.00 | 0.00 | 0.00 | 49 | 1009.3 |
| 20260506110030 | 13 | 73 | 14.5 | 32.2 | 0.00 | 0.00 | 0.00 | 49 | 1009.2 |
| 20260506105030 | 13 | 77 | 17.7 | 37.0 | 0.00 | 0.00 | 0.00 | 47 | 1009.2 |
| 20260506104030 | 13 | 82 | 12.9 | 35.4 | 0.00 | 0.00 | 0.00 | 51 | 1009.3 |
| 20260506103030 | 13 | 65 | 12.9 | 27.4 | 0.00 | 0.00 | 0.00 | 56 | 1009.3 |
| 20260506102030 | 13 | 67 | 12.9 | 30.6 | 0.00 | 0.00 | 0.00 | 56 | 1009.3 |
| 20260506101029 | 13 | 55 | 14.5 | 24.1 | 0.00 | 0.00 | 0.00 | 56 | 1009.2 |
| 20260506100029 | 12 | 67 | 14.5 | 30.6 | 0.00 | 0.00 | 0.00 | 57 | 1009.2 |
| 20260506095029 | 12 | 51 | 17.7 | 33.8 | 0.00 | 0.00 | 0.00 | 58 | 1009.1 |
| 20260506094030 | 12 | 66 | 16.1 | 33.8 | 0.00 | 0.00 | 0.00 | 61 | 1009.1 |
| 20260506093030 | 12 | 59 | 17.7 | 33.8 | 0.00 | 0.00 | 0.00 | 61 | 1009.1 |
| 20260506092029 | 12 | 40 | 14.5 | 27.4 | 0.00 | 0.00 | 0.00 | 71 | 1009.0 |
| 20260506091030 | 12 | 33 | 14.5 | 24.1 | 0.00 | 0.00 | 0.00 | 73 | 1009.0 |
| 20260506090029 | 12 | 33 | 14.5 | 24.1 | 0.00 | 0.00 | 0.00 | 73 | 1009.0 |
| 20260506085030 | 12 | 19 | 14.5 | 27.4 | 0.00 | 0.00 | 0.00 | 75 | 1008.9 |
| 20260506084030 | 12 | 47 | 12.9 | 24.1 | 0.00 | 0.00 | 0.00 | 76 | 1008.9 |
| 20260506083030 | 11 | 60 | 12.9 | 27.4 | 0.00 | 0.00 | 0.00 | 76 | 1008.9 |
| 20260506082030 | 11 | 47 | 11.3 | 22.5 | 0.00 | 0.00 | 0.00 | 77 | 1008.9 |
| 20260506081029 | 11 | 38 | 14.5 | 22.5 | 0.00 | 0.00 | 0.00 | 77 | 1008.9 |
| 20260506073029 | 11 | 61 | 17.7 | 30.6 | 0.00 | 0.00 | 0.00 | 75 | 1008.8 |
| 20260506072029 | 11 | 52 | 17.7 | 27.4 | 0.00 | 0.00 | 0.00 | 74 | 1008.8 |
| 20260506071030 | 11 | 62 | 17.7 | 27.4 | 0.00 | 0.00 | 0.00 | 74 | 1008.6 |
| 20260506062029 | 10 | 67 | 9.7 | 20.9 | 0.00 | 0.00 | 0.00 | 80 | 1008.3 |
| 20260506061029 | 10 | 60 | 12.9 | 25.7 | 0.00 | 0.00 | 0.00 | 82 | 1008.2 |
| 20260506051030 | 10 | 37 | 14.5 | 22.5 | 0.00 | 0.00 | 0.00 | 83 | 1008.3 |